Flag for U.S.A. Weather past 2 weeks in Richmond, Virginia, U.S.A.

Now
59 °F

Clear.


Feels Like: 57 °F
Forecast: 41 / 68 °F
Wind: 13 mph from North

Location: Richmond International Airport


UV Index: 5 (Moderate)

Visibility: 10 mi


Pressure: 29.93 "Hg

Humidity: 32%

Dew point: 29 °F

Location of RichmondLocation

Historic Weather in Richmond

°F

Richmond temperature yesterday

Maximum temperature yesterday: 81 °F (at 1:54 PM)
Minimum temperature yesterday: 50 °F (at 1:54 AM)
Average temperature yesterday: 65 °F

Past Weeks' High & Low Weather Summary

 TemperatureHumidityPressure
High83 °F (Apr 13, 2:54 PM)87% (Apr 15, 7:54 AM)30.63 "Hg (Apr 15, 7:54 AM)
Low33 °F (Apr 16, 5:54 AM)20% (Apr 10, 3:54 PM)29.59 "Hg (Apr 15, 3:54 PM)
Average59 °F52%30.11 "Hg
* Reported Apr 8 7:54 PM — Apr 23 7:54 PM, Richmond, Weather by CustomWeather, © 2014

Note: Actual official high and low records may vary slightly from our data, if they occured in-between our weather recording intervals... More about our weather records

Advertising

Historic Weather Conditions — Data for Previous 24 hours

 ConditionsComfort  
Time TempWeatherWind HumidityBarometerVisibility
7:54 PM
Apr 23
62 °FPassing clouds.14 mph27%29.90 "Hg10 mi
6:54 PM64 °FPassing clouds.13 mph27%29.86 "Hg10 mi
5:54 PM66 °FPassing clouds.17 mph24%29.85 "Hg10 mi
4:54 PM67 °FScattered clouds.24 mph23%29.84 "Hg10 mi
3:54 PM66 °FScattered clouds.18 mph25%29.83 "Hg10 mi
2:54 PM68 °FPassing clouds.14 mph25%29.83 "Hg10 mi
1:54 PM66 °FPassing clouds.14 mph25%29.82 "Hg10 mi
12:54 PM65 °FScattered clouds.15 mph26%29.83 "Hg10 mi
11:54 AM63 °FScattered clouds.15 mph29%29.83 "Hg10 mi
10:54 AM62 °FScattered clouds.16 mph30%29.83 "Hg10 mi
9:54 AM61 °FPassing clouds.16 mph34%29.81 "Hg10 mi
8:54 AM58 °FSunny.13 mph38%29.80 "Hg10 mi
7:54 AM55 °FSunny.12 mph45%29.78 "Hg10 mi
6:54 AM52 °FClear.8 mph57%29.75 "Hg10 mi
5:54 AM53 °FPassing clouds.8 mph56%29.73 "Hg10 mi
4:54 AM56 °FPassing clouds.15 mph55%29.71 "Hg10 mi
3:54 AM58 °FPassing clouds.14 mph62%29.70 "Hg9 mi
2:54 AM60 °FClear.14 mph65%29.67 "Hg9 mi
1:54 AM63 °FPassing clouds.15 mph65%29.66 "Hg9 mi
12:54 AM61 °FPassing clouds.No wind75%29.64 "Hg10 mi
11:54 PM
Apr 22
65 °FPassing clouds.No wind68%29.64 "Hg10 mi
10:54 PM69 °FMostly cloudy.6 mph57%29.63 "Hg10 mi
9:54 PM70 °FPassing clouds.7 mph53%29.63 "Hg10 mi
Weather by CustomWeather, © 2014

See weather overview